TimeAKST,TemperatureF,Dew PointF,Humidity,Sea Level PressureIn,VisibilityMPH,Wind Direction,Wind SpeedMPH,Gust SpeedMPH,PrecipitationIn,Events,Conditions,WindDirDegrees,DateUTC
12:53 AM,28.9,25.0,85,29.57,10.0,NNW,9.2,-,N/A,,Overcast,340,2014-01-16 09:53:00
1:53 AM,30.0,25.0,82,29.55,10.0,Calm,Calm,-,N/A,,Overcast,0,2014-01-16 10:53:00
3:53 AM,28.9,25.0,85,29.44,10.0,Calm,Calm,-,N/A,,Overcast,0,2014-01-16 12:53:00
4:18 AM,28.4,24.8,86,29.42,10.0,Calm,Calm,-,N/A,,Overcast,0,2014-01-16 13:18:00
4:46 AM,28.4,26.6,93,29.41,10.0,Calm,Calm,-,N/A,,Overcast,0,2014-01-16 13:46:00
4:53 AM,30.0,26.1,85,29.42,10.0,Calm,Calm,-,N/A,,Overcast,0,2014-01-16 13:53:00
5:53 AM,30.9,26.1,82,29.42,3.0,Calm,Calm,-,0.00,Snow,Light Snow,0,2014-01-16 14:53:00
6:11 AM,30.2,26.6,86,29.41,2.0,North,3.5,-,0.00,Snow,Light Snow,10,2014-01-16 15:11:00
6:46 AM,30.2,26.6,86,29.42,1.0,Calm,Calm,-,0.04,Snow,Light Snow,0,2014-01-16 15:46:00
6:53 AM,30.0,27.0,88,29.43,0.8,East,3.5,-,0.05,Snow,Light Snow,100,2014-01-16 15:53:00
7:48 AM,30.2,28.4,93,29.40,0.8,ENE,5.8,-,0.08,Snow,Light Snow,70,2014-01-16 16:48:00
7:53 AM,30.9,28.0,89,29.39,0.8,NE,5.8,-,0.09,Snow,Light Snow,50,2014-01-16 16:53:00
8:22 AM,30.2,28.4,93,29.38,4.0,North,4.6,-,0.01,Snow,Light Snow,360,2014-01-16 17:22:00
8:53 AM,30.9,27.0,85,29.39,9.0,NNW,8.1,-,0.01,Snow,Light Snow,340,2014-01-16 17:53:00
9:53 AM,32.0,28.0,85,29.48,9.0,Calm,Calm,-,0.00,Snow,Light Snow,0,2014-01-16 18:53:00
10:18 AM,32.0,28.4,87,29.50,5.0,Calm,Calm,-,0.00,Snow,Light Snow,0,2014-01-16 19:18:00
10:40 AM,32.0,28.4,87,29.54,1.0,Calm,Calm,-,0.00,Snow,Light Snow,0,2014-01-16 19:40:00
10:53 AM,32.0,28.0,85,29.53,0.1,NNW,4.6,-,0.00,Fog,Fog,340,2014-01-16 19:53:00
11:20 AM,32.0,28.4,87,29.54,0.5,Calm,Calm,-,N/A,Fog,Fog,0,2014-01-16 20:20:00
11:53 AM,32.0,28.9,88,29.55,0.2,Calm,Calm,-,N/A,Fog,Fog,0,2014-01-16 20:53:00
12:53 PM,32.0,28.9,88,29.57,1.5,ENE,3.5,-,N/A,Fog,Fog,70,2014-01-16 21:53:00
1:53 PM,33.1,30.0,89,29.61,1.2,Calm,Calm,-,N/A,,Overcast,0,2014-01-16 22:53:00
2:53 PM,32.0,28.9,88,29.62,1.5,Calm,Calm,-,N/A,,Overcast,0,2014-01-16 23:53:00
3:53 PM,33.1,28.9,85,29.65,1.5,Calm,Calm,-,N/A,,Overcast,0,2014-01-17 00:53:00
4:53 PM,33.1,30.0,89,29.68,1.0,Calm,Calm,-,N/A,,Overcast,0,2014-01-17 01:53:00
5:00 PM,33.8,30.2,87,29.68,1.0,Calm,Calm,-,N/A,,Overcast,0,2014-01-17 02:00:00
5:36 PM,32.0,28.4,87,29.70,0.2,NNE,3.5,-,N/A,Fog,Fog,30,2014-01-17 02:36:00
5:53 PM,30.9,28.0,89,29.70,0.2,NNW,3.5,-,N/A,Fog,Light Freezing Fog,340,2014-01-17 02:53:00
6:53 PM,30.9,28.0,89,29.70,0.2,North,3.5,-,N/A,Fog,Light Freezing Fog,10,2014-01-17 03:53:00
7:53 PM,30.9,28.0,89,29.72,0.2,NNW,3.5,-,N/A,Fog,Light Freezing Fog,340,2014-01-17 04:53:00
8:53 PM,30.9,28.9,92,29.71,0.8,Calm,Calm,-,N/A,,Mist,0,2014-01-17 05:53:00
9:53 PM,30.9,28.9,92,29.69,0.8,Calm,Calm,-,N/A,,Mist,0,2014-01-17 06:53:00
10:53 PM,30.9,28.0,89,29.68,0.5,Calm,Calm,-,N/A,Fog,Light Freezing Fog,0,2014-01-17 07:53:00
11:15 PM,30.2,28.4,93,29.67,1.8,Calm,Calm,-,N/A,,Overcast,0,2014-01-17 08:15:00
11:22 PM,32.0,28.4,87,29.65,3.0,NNE,4.6,-,N/A,,Overcast,20,2014-01-17 08:22:00
11:36 PM,32.0,28.4,87,29.66,9.0,NE,4.6,-,N/A,,Overcast,50,2014-01-17 08:36:00
11:53 PM,32.0,28.9,88,29.65,10.0,North,5.8,-,N/A,,Overcast,10,2014-01-17 08:53:00